Showing default

HULIANWANG DIGUI-11, 62971

Orbit data source: Space-Track

HULIANWANG DIGUI-11, 62971 is a payload satellite owned by Zhongguo Xingwang (CN) in LEO that was launched on Tue, 11 Feb 2025 UTC via a CHANG ZHENG 8A launch vehicle from the Wenchang Satellite Launch Center (WSC). Payload-class satellites include a variety of spacecraft equipped with specific instruments for various scientific and technological missions. These include communications satellites like Starlink; space stations such as the ISS; scientific satellites like the Hubble; Earth observation satellites from companies like Planet Labs, Umbra, and HawkEye 360; GPS; miniature CubeSats for education and research; and military/defense satellites.

Loading next visibility...
Identifier
62971, 2025-030A
Orbit
LEO
Country
Flag of CNCN / PRC
Related business
Manufacturer
CAST
Mission
Operational Civil Communications
Bus & Motor
XINGWANG C, Unknown motor
Mass
~700 kg wet, ~700 kg dry
Launch date (UTC)
2025-02-11 (1 year ago)
Launch vehicle
CHANG ZHENG 8A
Launch site
Wenchang Satellite Launch Center (WSC)
Object type
Payload
Rocket body
Debris
Shape & HBR
Box + 2 Pan, 2.1 m
Radar Cross Section
5.935 m², Large (>1 m²)

Expand to show TLE details & history
Last TLE update: 8 hours ago

TLE from 8 hours ago
0 HULIANWANG DIGUI-11
1 62971U 25030A   26038.40061215 -.00000075  00000-0  10477-3 0  9998
2 62971  50.0029 341.3393 0000475 108.2298 251.8626 13.29335520 48594
Epoch: 2026-02-07T09:36Z
TLE epoch observation values (Epoch: 2026-02-07T09:36:52.889Z)
Latitude
-0.00002°
Longitude
59.59424°
Altitude
1,149.888 km
Speed
7.279 km/s
True Right ascension
22h 45m 21s
True Declination
0° 00' 00"
Sunlit
Object was in daylight at epoch
Visualization orbit readout
Latitude
Unknown
Longitude
Unknown
Altitude
Unknown
Speed
Unknown
Apparent Right ascension
Unknown
Apparent Declination
Unknown
Sunlit
N/A
Visualization observer readout
Local Sidereal Time
19:37:21
Azimuth
Unknown
Elevation
Unknown
Doppler factor
Unknown
Orbital elements
Apogee altitude
1,150.333 km
Perigee altitude
1,149.618 km
Semi-major axis
7,528.113 km
Eccentricity
0.00005
Inclination
50.0029°
RAAN
341.3393°
Arg. of periapsis
108.2298°
True anomaly
251.85743°
Mean anomaly
251.8626°
Eccentric anomaly
251.86001°
Mean motion
3.32288 °/min
Orbital period
108.34 mins
BSTAR
0.00010477
Loading maneuver chart data...
Computing Atmospheric mass density...
Loading historical data...
Loading historical data...
Loading historical data...
Loading historical data...
Loading historical data...
Loading historical data...
Loading historical data...

Documentation

Showing up to 5 results
|